sat.trackr.live / text

‹ back to catalog

STARLINK-31691

NORAD 59856 · 2024-097X

PAYLOAD ACTIVE UNKNOWN

§ Identity

Operator
Country
US
Launch date
2024-05-23
Launch site
AFETR
Launch vehicle
Mass (kg)
RCS (m²)

Purposes: comms

External: N2YO · Heavens-Above · Gunter

§ Orbital elements

Epoch: 2026-05-25T04:56:10.092768Z

Period
94.27 min
Inclination
43.0025°
Eccentricity
0.0001390
Mean motion
15.27577367 rev/d
Perigee alt
482.1 km
Apogee alt
484.0 km
Semi-major
6,861.2 km
B*
-2.0512e-5
RAAN
201.8275°
Arg perigee
286.9247°
Mean anomaly
73.1452°
Rev number
11,362

§ Raw data

STARLINK-316911 59856U 24097X   26145.20567237 -.00000826  00000+0 -20512-4 0  99962 59856  43.0025 201.8275 0001390 286.9247  73.1452 15.27577367113620

JSON: /api/v1/satellites/59856 · /tle

For live sub-satellite position, see the globe view (requires WebGL).

§ Visibility from observer

Set your observer location to see the next 7 days of passes ≥ 10°. The values pass through the URL so the page stays shareable.

No JS? Fill the form by hand. The geolocation button needs JavaScript.